SL-16 DEB, 22290

Orbit data source: Space-Track

SL-16 DEB, 22290 is space debris in LEO originally from a launch on Fri, 25 Dec 1992 UTC launched from the Tyuratam Missile And Space Complex (TTMTR). Debris objects in space refer to the collection of defunct objects orbiting the Earth. Examples of debris include non-operational satellites, rocket bodies, and fragments generated from explosions, collisions, or faulty payload assembly.

Loading next visibility...
Identifier
22290, 1992-093E
Orbit
LEO
Country
Flag of CISCIS
Related business
Manufacturer
Yuzhnoe
Mission
Spacecraft
Bus & Motor
SEP MOTOR COVER, Unknown motor
Mass
~0 kg wet, ~1 kg dry
Launch date (UTC)
1992-12-25 (33 years ago)
Launch vehicle
Unknown
Launch site
Tyuratam Missile And Space Complex (TTMTR)
Object type
Payload
Rocket body
Debris
Shape & HBR
Unknown
Radar Cross Section
Small (<0.1 m²)

Expand to show TLE details & history
Last TLE update: 10 hours ago

TLE from 10 hours ago
0 SL-16 DEB
1 22290U 92093E   26133.43841734  .00000087  00000-0  11812-3 0  9998
2 22290  71.0469 128.5234 0195614 323.5425 110.3938 13.75382063673738
Epoch: 2026-05-13T10:31Z
TLE epoch observation values (Epoch: 2026-05-13T10:31:19.258Z)
Latitude
66.69991°
Longitude
151.98838°
Altitude
1,043.923 km
Speed
7.31 km/s
True Right ascension
12h 04m 04s
True Declination
66° 34' 46"
Sunlit
Object was in daylight at epoch
Visualization orbit readout
Latitude
Unknown
Longitude
Unknown
Altitude
Unknown
Speed
Unknown
Apparent Right ascension
Unknown
Apparent Declination
Unknown
Sunlit
N/A
Visualization observer readout
Local Sidereal Time
04:56:07
Azimuth
Unknown
Elevation
Unknown
Doppler factor
Unknown
Orbital elements
Apogee altitude
1,122.172 km
Perigee altitude
834.368 km
Semi-major axis
7,356.407 km
Eccentricity
0.01956
Inclination
71.0469°
RAAN
128.5234°
Arg. of periapsis
323.5425°
True anomaly
112.47665°
Mean anomaly
110.3938°
Eccentric anomaly
111.43705°
Mean motion
3.43989 °/min
Orbital period
104.65 mins
BSTAR
0.00011812
Loading maneuver chart data...
Computing Atmospheric mass density...
Loading historical data...
Loading historical data...
Loading historical data...
Loading historical data...
Loading historical data...
Loading historical data...
Loading historical data...

Documentation

Showing up to 5 results
|